Location: Unspecified
(0.0000°N, 0.0000°E)
Time: 14:19:16
(UTC+00:00)

Vanguard 2 - Visible Passes

Search period start: 29 May 2015 00:00
Search period end: 08 June 2015 00:00
Orbit: 554 x 2943 km, 32.9° (Epoch: 28 May)

Date Brightness Start Highest point End Pass type
(mag) Time Alt. Az. Time Alt. Az. Time Alt. Az.
29 May 11.5 01:12:05 10° NNW 01:23:58 22° NNE 01:34:21 10° ENE visible
29 May 10.3 03:24:22 10° NW 03:38:53 46° NNE 03:48:23 10° E visible
29 May 10.7 18:45:01 10° W 18:53:50 38° NNW 19:07:04 10° NE visible
29 May 11.7 20:59:36 10° NW 21:08:55 19° N 21:19:33 10° NNE visible
29 May 11.8 23:17:27 10° NNW 23:26:55 16° N 23:36:35 10° NE visible
30 May 11.3 01:30:55 10° NNW 01:44:17 27° NNE 01:55:19 10° ENE visible
30 May 9.9 03:43:12 10° NW 03:58:22 61° NNE 04:07:47 10° ESE visible
30 May 11.1 19:05:01 10° WNW 19:13:39 29° NNW 19:25:41 10° NNE visible
30 May 11.8 21:21:01 10° NW 21:29:32 16° N 21:38:56 10° NNE visible
30 May 11.8 23:37:16 10° NNW 23:47:43 18° N 23:58:15 10° NE visible
31 May 11.0 01:49:37 10° NW 02:04:22 34° NNE 02:15:48 10° E visible
31 May 9.5 04:02:13 10° NW 04:17:37 81° NE 04:26:52 10° ESE visible
31 May 11.4 19:25:31 10° WNW 19:33:42 22° NNW 19:44:16 10° NNE visible
31 May 11.9 21:42:17 10° NNW 21:50:17 15° N 21:59:05 10° NNE visible
31 May 11.6 23:56:29 10° NNW 00:08:20 21° NNE 00:19:56 10° ENE visible
01 Jun 10.6 02:08:18 10° NW 02:24:13 44° NNE 02:35:50 10° E visible
01 Jun 9.3 04:21:32 10° WNW 04:36:39 77° SW 04:45:41 10° SE visible
01 Jun 11.6 19:46:29 10° NW 19:53:57 18° N 20:02:56 10° NNE visible
01 Jun 11.9 22:02:54 10° NNW 22:11:06 15° N 22:20:12 10° NE visible
02 Jun 11.4 00:15:21 10° NNW 00:28:45 26° NNE 00:41:17 10° ENE visible
02 Jun 10.2 02:27:05 10° NW 02:43:51 57° NNE 02:55:27 10° ESE visible
02 Jun 9.4 04:41:11 10° WNW 04:55:32 57° SW 05:04:14 10° SE visible
02 Jun 11.7 20:07:50 10° NW 20:14:23 15° N 20:21:54 10° NNE visible
02 Jun 11.8 22:22:43 10° NNW 22:31:52 17° N 22:42:05 10° NE visible
03 Jun 11.1 00:34:03 10° NNW 00:48:55 33° NNE 01:02:08 10° E visible
03 Jun 9.9 02:46:00 10° NW 03:03:14 73° NNE 03:14:43 10° ESE visible
03 Jun 9.7 05:01:17 10° WNW 05:14:22 41° SW 05:22:33 10° SSE visible
03 Jun 11.3 18:13:20 10° WNW 18:19:39 20° NNW 18:27:56 10° NNE visible
03 Jun 11.8 20:29:12 10° NNW 20:34:58 13° N 20:41:32 10° NNE visible
03 Jun 11.7 22:41:54 10° NNW 22:52:30 20° NNE 23:04:12 10° ENE visible
04 Jun 10.8 00:52:41 10° NW 01:08:51 41° NNE 01:22:29 10° E visible
04 Jun 9.7 03:05:09 10° NW 03:22:25 88° SW 03:33:42 10° SE visible
04 Jun 10.0 05:21:57 10° W 05:33:15 29° SW 05:40:38 10° SSE visible
04 Jun 11.5 18:34:17 10° NW 18:39:41 15° N 18:46:09 10° NNE visible
04 Jun 11.8 20:49:54 10° NNW 20:55:38 13° N 21:02:21 10° NNE visible
04 Jun 11.5 23:00:42 10° NNW 23:12:55 24° NNE 23:20:34 19° NE visible
05 Jun 10.5 01:11:23 10° NW 01:31:03 50° NE 01:42:22 10° ESE visible
05 Jun 9.6 03:33:00 34° WNW 03:41:27 69° SW 03:52:25 10° SE visible
05 Jun 11.6 18:55:58 10° NNW 18:59:55 12° N 19:04:16 10° NNE visible
05 Jun 11.8 21:09:35 10° NNW 21:16:17 14° N 21:24:23 10° NE visible
05 Jun 11.2 23:19:19 10° NNW 23:33:06 30° NNE 23:34:27 30° NNE visible
06 Jun 10.4 01:30:11 10° NW 01:52:38 52° E 02:01:52 10° ESE visible
06 Jun 9.8 03:54:21 37° W 04:00:26 53° SW 04:10:55 10° SE visible
06 Jun 11.7 19:18:33 10° N 19:20:18 10° N 19:22:08 10° N visible
06 Jun 11.7 21:28:33 10° NNW 21:36:50 17° NNE 21:46:58 10° NE visible
06 Jun 11.1 23:37:52 10° NNW 00:11:04 - E 23:49:47 35° N visible
07 Jun 10.3 01:49:09 10° NW 02:12:44 51° ESE 02:21:02 10° ESE visible
07 Jun 10.0 04:14:22 32° WSW 04:19:25 39° SW 04:29:14 10° SSE visible
07 Jun 11.5 21:47:09 10° NNW 21:57:13 21° NNE 22:04:17 17° NE visible
